Location: Vinland
(47.7731°N, 122.6974°W)
Time: 16:50:39
(UTC+00:00)

Vanguard 2 Rocket - All Passes

Search period start: 31 March 2023 00:00
Search period end: 10 April 2023 00:00
Orbit: 555 x 3315 km, 32.9° (Epoch: 31 March)

Date Brightness Start Highest point End Pass type
(mag) Time Alt. Az. Time Alt. Az. Time Alt. Az.
31 Mar - 01:54:05 10° S 01:57:12 15° SSE 02:01:07 10° ESE daylight
31 Mar - 04:03:32 10° SW 04:09:08 28° S 04:17:44 10° ESE visible
31 Mar - 06:15:17 10° WSW 06:22:22 26° SSW 06:32:53 10° SE visible
31 Mar - 08:30:50 10° SW 08:36:26 14° SSW 08:43:11 10° S night (unlit)
01 Apr - 03:03:56 10° SW 03:08:29 23° SSE 03:15:04 10° ESE visible
01 Apr - 05:14:58 10° WSW 05:21:09 26° S 05:30:31 10° SE visible
01 Apr - 07:28:38 10° WSW 07:34:52 17° SSW 07:42:58 10° S visible
02 Apr - 02:04:41 10° SSW 02:08:04 17° SSE 02:12:29 10° ESE daylight
02 Apr - 04:14:57 10° SW 04:20:13 25° S 04:28:04 10° SE visible
02 Apr - 06:27:27 10° WSW 06:33:27 19° SSW 06:41:42 10° SSE visible
03 Apr - 01:06:17 10° S 01:07:48 11° SSE 01:09:28 10° SE daylight
03 Apr - 03:15:10 10° SW 03:19:31 22° S 03:25:42 10° SE visible
03 Apr - 05:26:50 10° WSW 05:32:16 21° S 05:39:57 10° SSE visible
03 Apr - 07:44:26 10° SW 07:45:53 10° SSW 07:47:25 10° SSW visible
04 Apr - 02:15:37 10° SSW 02:19:01 18° SSE 02:23:28 10° SE daylight
04 Apr - 04:26:36 10° SW 04:31:19 21° S 04:37:58 10° SE visible
04 Apr - 06:40:48 10° SW 06:44:32 13° SSW 06:49:00 10° S visible
05 Apr - 01:16:28 10° SSW 01:18:40 13° SSE 01:21:13 10° SE daylight
05 Apr - 03:26:36 10° SW 03:30:35 20° S 03:35:59 10° SE visible
05 Apr - 05:39:23 10° SW 05:43:23 14° SSW 05:48:23 10° SSE visible
06 Apr - 02:26:49 10° SW 02:30:01 17° S 02:34:05 10° SE daylight
06 Apr - 04:38:42 10° SW 04:42:25 15° S 04:47:10 10° SSE visible
07 Apr - 01:27:16 10° SSW 01:29:35 14° S 01:32:17 10° SE daylight
07 Apr - 03:38:24 10° SW 03:41:38 15° S 03:45:43 10° SSE visible
08 Apr - 00:28:20 10° S 00:29:13 11° SSE 00:30:08 10° SSE daylight
08 Apr - 02:38:21 10° SW 02:41:02 15° S 02:44:16 10° SSE daylight
09 Apr - 01:38:28 10° SSW 01:40:33 13° S 01:42:52 10° SSE daylight
09 Apr - 03:51:32 10° SSW 03:52:41 11° SSW 03:53:54 10° S visible
